4XDAG LLHZ-LLHZ

Flight info

Callsign 4XDAG
Flight time 0h 35m
Altitude 1200
Route SFAIM APOLN ARENA HTZUK RIDNG CLORE TYONA CLORE RIDNG HTZUK KNTRY
Aircraft PA28/M-S/5100

Departure

Time 2026-04-16 12:54
Airport Herzliya Airport (LLHZ)

Arrival

Time 2026-04-16 13:29
Airport Herzliya Airport (LLHZ)
Time Latitude Longitude Altitude Speed Heading
2026-04-16 12:42 32.17887 34.83677 110 ft 0 kts 20°
2026-04-16 12:50 32.17940 34.83640 109 ft 18 kts 290°
2026-04-16 12:50 32.17997 34.83447 103 ft 32 kts 289°
2026-04-16 12:50 32.18077 34.83174 97 ft 32 kts 290°
2026-04-16 12:50 32.18109 34.83070 94 ft 0 kts 289°
2026-04-16 12:53 32.18139 34.83082 93 ft 13 kts 90°
2026-04-16 12:53 32.18064 34.83343 99 ft 62 kts 109°
2026-04-16 12:53 32.17895 34.83955 303 ft 78 kts 104°
2026-04-16 12:54 32.17726 34.84611 563 ft 92 kts 94°
2026-04-16 12:54 32.17940 34.85338 730 ft 100 kts 26°
2026-04-16 12:54 32.18626 34.85425 904 ft 99 kts 332°
2026-04-16 12:54 32.18931 34.84647 884 ft 125 kts 281°
2026-04-16 12:55 32.19140 34.83627 902 ft 128 kts 304°
2026-04-16 12:55 32.19926 34.83173 827 ft 142 kts
2026-04-16 12:55 32.20807 34.83655 1096 ft 129 kts 24°
2026-04-16 12:55 32.21639 34.83685 1235 ft 132 kts 328°
2026-04-16 12:56 32.22054 34.82705 1222 ft 145 kts 283°
2026-04-16 12:56 32.21889 34.81553 1177 ft 158 kts 234°
2026-04-16 12:56 32.20867 34.80965 1008 ft 168 kts 199°
2026-04-16 12:56 32.19757 34.80577 1075 ft 165 kts 199°
2026-04-16 12:57 32.18663 34.80157 1045 ft 163 kts 200°
2026-04-16 12:57 32.17571 34.79754 991 ft 165 kts 198°
2026-04-16 12:57 32.16487 34.79380 874 ft 169 kts 198°
2026-04-16 12:57 32.15348 34.78989 751 ft 171 kts 197°
2026-04-16 12:58 32.14228 34.78602 780 ft 164 kts 199°
2026-04-16 12:58 32.13124 34.78228 804 ft 166 kts 199°
2026-04-16 12:58 32.12030 34.77877 817 ft 161 kts 197°
2026-04-16 12:58 32.10972 34.77461 904 ft 159 kts 204°
2026-04-16 12:59 32.09961 34.77037 1044 ft 152 kts 201°
2026-04-16 12:59 32.08947 34.76629 1038 ft 155 kts 197°
2026-04-16 12:59 32.07893 34.76261 983 ft 161 kts 199°
2026-04-16 13:00 32.05941 34.75223 1004 ft 152 kts 230°
2026-04-16 13:00 32.05050 34.74574 1027 ft 161 kts 200°
2026-04-16 13:00 32.03903 34.74251 838 ft 174 kts 194°
2026-04-16 13:00 32.02801 34.74003 661 ft 146 kts 200°
2026-04-16 13:01 32.02108 34.73375 665 ft 126 kts 269°
2026-04-16 13:01 32.02745 34.72961 743 ft 130 kts 17°
2026-04-16 13:01 32.03416 34.73800 587 ft 153 kts 45°
2026-04-16 13:01 32.04295 34.74320 639 ft 127 kts 17°
2026-04-16 13:02 32.05149 34.74719 704 ft 139 kts 19°
2026-04-16 13:02 32.06008 34.75406 637 ft 154 kts 29°
2026-04-16 13:02 32.06920 34.75950 775 ft 140 kts 21°
2026-04-16 13:02 32.07814 34.76377 870 ft 139 kts 16°
2026-04-16 13:03 32.08733 34.76791 880 ft 145 kts 18°
2026-04-16 13:03 32.09664 34.77156 1053 ft 136 kts 17°
2026-04-16 13:03 32.10543 34.77541 1142 ft 139 kts 17°
2026-04-16 13:03 32.11471 34.77927 1220 ft 141 kts 15°
2026-04-16 13:04 32.12418 34.78311 1152 ft 146 kts 14°
2026-04-16 13:04 32.13423 34.78673 1053 ft 152 kts 14°
2026-04-16 13:04 32.14399 34.79170 1024 ft 147 kts 22°
2026-04-16 13:04 32.15082 34.78829 1234 ft 138 kts 263°
2026-04-16 13:05 32.14263 34.78914 857 ft 165 kts 102°
2026-04-16 13:05 32.14072 34.80144 1041 ft 152 kts 96°
2026-04-16 13:05 32.13912 34.81383 1014 ft 150 kts 76°
2026-04-16 13:05 32.14623 34.82104 913 ft 145 kts 10°
2026-04-16 13:06 32.15588 34.82340 966 ft 139 kts 11°
2026-04-16 13:06 32.16559 34.82543 914 ft 145 kts
2026-04-16 13:06 32.17562 34.82804 858 ft 153 kts
2026-04-16 13:06 32.18601 34.83063 848 ft 150 kts 12°
2026-04-16 13:07 32.19090 34.83936 1072 ft 150 kts 84°
2026-04-16 13:07 32.18668 34.85133 945 ft 164 kts 136°
2026-04-16 13:07 32.17717 34.85181 513 ft 119 kts 234°
2026-04-16 13:07 32.17751 34.84434 315 ft 82 kts 296°
2026-04-16 13:08 32.17904 34.83875 144 ft 65 kts 292°
2026-04-16 13:08 32.18055 34.83392 112 ft 74 kts 291°
2026-04-16 13:08 32.18343 34.82814 295 ft 89 kts 334°
2026-04-16 13:08 32.19000 34.82959 468 ft 107 kts 20°
2026-04-16 13:09 32.19250 34.83746 666 ft 137 kts 109°
2026-04-16 13:09 32.18772 34.84785 699 ft 146 kts 120°
2026-04-16 13:09 32.18017 34.85330 620 ft 117 kts 190°
2026-04-16 13:09 32.17606 34.84863 379 ft 81 kts 285°
2026-04-16 13:10 32.17805 34.84227 248 ft 82 kts 291°
2026-04-16 13:10 32.17969 34.83653 112 ft 63 kts 291°
2026-04-16 13:10 32.18158 34.83074 187 ft 91 kts 296°
2026-04-16 13:10 32.18697 34.82843 310 ft 110 kts 16°
2026-04-16 13:11 32.19153 34.83435 657 ft 121 kts 98°
2026-04-16 13:11 32.18829 34.84506 617 ft 147 kts 109°
2026-04-16 13:11 32.18163 34.85294 642 ft 129 kts 176°
2026-04-16 13:11 32.17618 34.84866 389 ft 86 kts 279°
2026-04-16 13:12 32.17782 34.84278 278 ft 71 kts 291°
2026-04-16 13:12 32.17948 34.83717 117 ft 73 kts 290°
2026-04-16 13:12 32.18115 34.83156 190 ft 82 kts 289°
2026-04-16 13:12 32.18544 34.82802 366 ft 100 kts
2026-04-16 13:13 32.19203 34.83268 474 ft 128 kts 53°
2026-04-16 13:13 32.19037 34.84353 613 ft 149 kts 117°
2026-04-16 13:13 32.18398 34.85178 639 ft 126 kts 154°
2026-04-16 13:13 32.17627 34.85100 460 ft 101 kts 244°
2026-04-16 13:14 32.17761 34.84391 293 ft 91 kts 293°
2026-04-16 13:14 32.17963 34.83669 118 ft 89 kts 291°
2026-04-16 13:14 32.18187 34.82983 225 ft 97 kts 296°
2026-04-16 13:14 32.18810 34.82905 380 ft 113 kts 18°
2026-04-16 13:15 32.19351 34.83572 643 ft 131 kts 84°
2026-04-16 13:15 32.18910 34.84597 690 ft 146 kts 122°
2026-04-16 13:15 32.18532 34.85657 912 ft 139 kts 90°
2026-04-16 13:15 32.18856 34.86701 934 ft 141 kts 52°
2026-04-16 13:16 32.19322 34.87730 1026 ft 144 kts 62°
2026-04-16 13:16 32.20034 34.88433 849 ft 142 kts 359°
2026-04-16 13:16 32.20966 34.88363 815 ft 128 kts 356°
2026-04-16 13:16 32.21848 34.88327 812 ft 123 kts 357°
2026-04-16 13:17 32.22720 34.88402 772 ft 129 kts
2026-04-16 13:17 32.23608 34.88582 834 ft 129 kts
2026-04-16 13:17 32.24490 34.88555 830 ft 130 kts 347°
2026-04-16 13:17 32.25306 34.88124 799 ft 128 kts 326°
2026-04-16 13:18 32.26015 34.87477 798 ft 128 kts 324°
2026-04-16 13:18 32.26812 34.86991 788 ft 133 kts 345°
2026-04-16 13:18 32.27720 34.86893 882 ft 129 kts 360°
2026-04-16 13:18 32.28617 34.86957 944 ft 131 kts
2026-04-16 13:19 32.29487 34.87066 920 ft 126 kts
2026-04-16 13:19 32.30378 34.87130 867 ft 130 kts
2026-04-16 13:19 32.31264 34.87205 988 ft 125 kts
2026-04-16 13:19 32.32154 34.87369 944 ft 134 kts
2026-04-16 13:20 32.33075 34.87567 935 ft 133 kts 10°
2026-04-16 13:20 32.33987 34.87825 922 ft 136 kts 14°
2026-04-16 13:20 32.34828 34.88229 1187 ft 126 kts 23°
2026-04-16 13:20 32.35378 34.88453 1101 ft 129 kts 358°
2026-04-16 13:21 32.36096 34.87933 1108 ft 126 kts 300°
2026-04-16 13:21 32.36617 34.87302 1063 ft 125 kts
2026-04-16 13:21 32.37175 34.88136 1047 ft 144 kts 81°
2026-04-16 13:21 32.36559 34.89580 988 ft 157 kts 104°
2026-04-16 13:22 32.37032 34.90422 1155 ft 129 kts
2026-04-16 13:22 32.37678 34.89846 1133 ft 135 kts 289°
2026-04-16 13:22 32.37621 34.89096 1143 ft 142 kts 250°
2026-04-16 13:22 32.36691 34.88609 1104 ft 160 kts 188°
2026-04-16 13:23 32.35689 34.88945 1272 ft 147 kts 127°
2026-04-16 13:23 32.35455 34.90000 1447 ft 136 kts 133°
2026-04-16 13:23 32.34602 34.89634 1267 ft 149 kts 206°
2026-04-16 13:23 32.34016 34.90274 1518 ft 133 kts 100°
2026-04-16 13:24 32.33230 34.90778 1454 ft 146 kts 189°
2026-04-16 13:24 32.32227 34.90575 1456 ft 148 kts 197°
2026-04-16 13:24 32.31209 34.90225 1393 ft 158 kts 200°
2026-04-16 13:24 32.30133 34.89946 1397 ft 157 kts 189°
2026-04-16 13:25 32.29052 34.89804 1381 ft 156 kts 189°
2026-04-16 13:25 32.28005 34.89680 1501 ft 146 kts 190°
2026-04-16 13:25 32.27014 34.89545 1589 ft 143 kts 191°
2026-04-16 13:25 32.26039 34.89351 1608 ft 142 kts 192°
2026-04-16 13:26 32.25108 34.89126 1789 ft 137 kts 197°
2026-04-16 13:26 32.24174 34.88794 1861 ft 139 kts 200°
2026-04-16 13:26 32.23260 34.88466 1998 ft 139 kts 196°
2026-04-16 13:26 32.22286 34.88312 1972 ft 144 kts 182°
2026-04-16 13:27 32.21237 34.88279 1786 ft 156 kts 191°
2026-04-16 13:27 32.20343 34.87586 1590 ft 155 kts 236°
2026-04-16 13:27 32.19894 34.86492 1453 ft 143 kts 258°
2026-04-16 13:27 32.19797 34.85426 1158 ft 117 kts 267°
2026-04-16 13:28 32.19405 34.84882 1293 ft 91 kts 178°
2026-04-16 13:28 32.18741 34.84983 1007 ft 108 kts 168°
2026-04-16 13:28 32.17991 34.85127 653 ft 111 kts 169°
2026-04-16 13:28 32.17627 34.84736 417 ft 77 kts 289°
2026-04-16 13:29 32.17813 34.84159 236 ft 73 kts 296°
2026-04-16 13:29 32.17977 34.83631 112 ft 56 kts 288°
2026-04-16 13:29 32.18050 34.83389 102 ft 17 kts 292°
2026-04-16 13:29 32.18043 34.83331 103 ft 6 kts 187°
2026-04-16 13:30 32.18032 34.83337 103 ft 6 kts 124°
2026-04-16 13:30 32.17996 34.83452 106 ft 20 kts 109°
2026-04-16 13:30 32.17967 34.83551 108 ft 0 kts 109°
2026-04-16 13:31 32.17965 34.83556 109 ft 8 kts 103°
2026-04-16 13:31 32.17943 34.83634 112 ft 0 kts 110°
2026-04-16 13:31 32.17939 34.83647 113 ft 11 kts 110°
2026-04-16 13:32 32.17890 34.83699 115 ft 9 kts 117°
2026-04-16 13:32 32.17870 34.83742 117 ft 2 kts 93°
2026-04-16 13:32 32.17873 34.83746 118 ft 0 kts 13°